EW0690 Bologna IT current weather conditions

sailwx.info

Wind from 239

Air temperature 21.1° C
Dewpoint 18.9° C

Last reported at 2020-Aug-15 04:00 UTC.
Time now 2020-Aug-15 05:14 UTC

Location: N 44°29' E 011°22'.
View on Google Maps.

See reports from other nearby stations

  
Tides and Currents Weather Stations Pressure Air Temp Water Temp Dewpoint Dewpoint Depression Visibility Wind Speed Wind Dir Waves Ship Positions
date/time (UTC)wind fromknots sea level pressurealtimeterstation pressurevisibilityair tempwater tempwave heightnotes
2020-Aug-15 04:00 239 21.1
2020-Aug-15 03:45 256 21.1
2020-Aug-15 03:30 225 21.1
2020-Aug-15 03:15 242 21.1
2020-Aug-15 03:00 245 21.7
2020-Aug-15 02:46 074 21.7
2020-Aug-15 02:31 046 21.7
2020-Aug-15 02:16 018 2 gusting 3 21.7
2020-Aug-15 02:03 044 0 gusting 2 22.2
2020-Aug-15 01:47 290 0 gusting 3 22.2
2020-Aug-15 01:31 253 22.2
2020-Aug-15 01:16 228 22.2
2020-Aug-15 01:02 229 22.2
2020-Aug-15 00:46 229 22.2
2020-Aug-15 00:32 257 22.2
2020-Aug-15 00:16 228 22.2
2020-Aug-15 00:02 248 22.8
2020-Aug-14 23:46 248 0 gusting 1 22.8
2020-Aug-14 23:31 163 23.3
2020-Aug-14 23:16 200 0 gusting 2 23.3
2020-Aug-14 23:01 181 0 gusting 1 23.3
2020-Aug-14 22:46 211 23.9
2020-Aug-14 22:31 063 2 gusting 5 23.9
2020-Aug-14 22:16 053 1 gusting 3 23.9
2020-Aug-14 22:00 358 24.4
2020-Aug-14 21:45 088 24.4
2020-Aug-14 21:30 070 0 gusting 2 24.4
2020-Aug-14 21:15 169 1 gusting 4 25.0
2020-Aug-14 21:00 056 2 gusting 5 25.0
2020-Aug-14 20:46 049 3 gusting 6 25.6
2020-Aug-14 20:30 070 3 gusting 5 26.1
2020-Aug-14 20:15 101 0 gusting 4 26.7
2020-Aug-14 20:01 065 0 gusting 3 26.7
2020-Aug-14 19:45 068 0 gusting 2 26.7
2020-Aug-14 19:30 091 1 gusting 3 26.7
2020-Aug-14 19:15 099 1 gusting 4 26.7
2020-Aug-14 19:01 166 0 gusting 2 26.7
2020-Aug-14 18:45 091 2 gusting 5 27.2
2020-Aug-14 18:31 094 3 gusting 6 27.2
2020-Aug-14 18:15 125 1 gusting 4 27.2
2020-Aug-14 18:00 129 1 gusting 6 27.2
2020-Aug-14 17:45 131 3 gusting 7 27.2
2020-Aug-14 17:30 084 4 gusting 8 27.2
2020-Aug-14 17:15 101 5 gusting 8 27.2
2020-Aug-14 17:00 084 6 gusting 9 27.2
2020-Aug-14 16:45 110 6 gusting 12 28.3
2020-Aug-14 16:30 003 6 gusting 11 28.9
2020-Aug-14 16:15 063 6 gusting 13 30.0
2020-Aug-14 16:00 006 6 gusting 13 31.1
2020-Aug-14 15:45 293 4 gusting 10 32.2
2020-Aug-14 15:30 321 4 gusting 8 32.2
2020-Aug-14 15:15 008 4 gusting 9 32.2
2020-Aug-14 15:00 011 4 gusting 8 32.2
2020-Aug-14 14:45 033 4 gusting 7 32.2
2020-Aug-14 14:30 278 2 gusting 8 32.2
2020-Aug-14 14:15 322 0 gusting 8 32.2
2020-Aug-14 14:00 329 2 gusting 6 32.2
2020-Aug-14 13:45 315 2 gusting 8 32.2
2020-Aug-14 13:30 277 5 gusting 10 32.2
2020-Aug-14 13:15 297 4 gusting 7 32.2
2020-Aug-14 13:02 297 2 gusting 6 32.2
2020-Aug-14 12:46 004 2 gusting 8 31.7
2020-Aug-14 12:31 008 4 gusting 9 31.1
2020-Aug-14 12:16 293 4 gusting 6 31.1
2020-Aug-14 12:01 324 4 gusting 7 31.1
2020-Aug-14 11:46 304 2 gusting 8 31.1
2020-Aug-14 11:32 256 0 gusting 7 31.1
2020-Aug-14 11:16 122 0 gusting 6 31.1
2020-Aug-14 11:00 270 1 gusting 6 30.6
2020-Aug-14 10:46 305 1 gusting 5 30.0
2020-Aug-14 10:30 260 3 gusting 6 30.0
2020-Aug-14 10:16 015 1 gusting 6 30.0
2020-Aug-14 10:01 274 1 gusting 6 29.4
2020-Aug-14 09:45 259 0 gusting 6 28.9
2020-Aug-14 09:31 278 2 gusting 7 28.9
2020-Aug-14 09:15 273 3 gusting 6 28.3
2020-Aug-14 09:00 281 1 gusting 7 28.3
2020-Aug-14 08:46 276 2 gusting 6 27.8
2020-Aug-14 08:30 259 1 gusting 6 27.2
2020-Aug-14 08:15 265 3 gusting 6 27.2
2020-Aug-14 08:00 284 5 gusting 7 26.7
2020-Aug-14 07:45 300 3 gusting 6 26.7
2020-Aug-14 07:30 287 4 gusting 9 26.1
2020-Aug-14 07:15 271 4 gusting 7 26.1
2020-Aug-14 07:00 286 4 gusting 7 26.1
2020-Aug-14 06:45 278 2 gusting 5 26.1
2020-Aug-14 06:30 239 2 gusting 5 25.0
2020-Aug-14 06:15 271 2 gusting 5 24.4
2020-Aug-14 06:00 250 24.4
2020-Aug-14 05:45 264 23.9
2020-Aug-14 05:30 229 23.9
2020-Aug-14 05:15 227 23.9
2020-Aug-14 05:00 228 23.9
2020-Aug-14 04:47 228 24.4
2020-Aug-14 04:45 228 24.4
2020-Aug-14 04:31 222 0 gusting 1 24.4
2020-Aug-14 04:17 260 1 gusting 3 24.4
2020-Aug-14 04:03 263 0 gusting 2 24.4
2020-Aug-14 03:47 236 0 gusting 2 23.9
2020-Aug-14 03:31 233 23.3
2020-Aug-14 03:17 184 23.3
2020-Aug-14 03:01 207 23.9
2020-Aug-14 02:47 270 24.4
2020-Aug-14 02:32 264 0 gusting 1 24.4
2020-Aug-14 02:16 253 24.4
2020-Aug-14 02:01 253 25.0
2020-Aug-14 01:46 286 24.4
2020-Aug-14 01:31 026 0 gusting 2 25.0
2020-Aug-14 01:16 231 25.6
2020-Aug-14 01:00 229 25.0
2020-Aug-14 00:46 238 24.4
2020-Aug-14 00:16 119 23.9
2020-Aug-14 00:01 264 24.4
2020-Aug-13 23:01 274 25.6
2020-Aug-13 22:46 273 25.0
2020-Aug-13 22:31 273 25.0
2020-Aug-13 22:16 191 25.0
2020-Aug-13 22:01 190 25.6
2020-Aug-13 21:45 228 25.6
2020-Aug-13 21:30 226 25.6
2020-Aug-13 21:16 226 25.6
2020-Aug-13 21:00 212 26.1
2020-Aug-13 20:45 197 26.7
2020-Aug-13 20:30 195 26.7
2020-Aug-13 20:15 235 26.7
2020-Aug-13 20:00 236 27.2
2020-Aug-13 19:45 233 27.8
2020-Aug-13 19:30 226 27.8
2020-Aug-13 19:15 239 28.3
2020-Aug-13 19:00 226 28.9
2020-Aug-13 18:45 245 29.4
2020-Aug-13 18:31 276 0 gusting 2 30.6
2020-Aug-13 18:15 316 0 gusting 2 30.6
2020-Aug-13 18:00 351 2 gusting 3 31.1
2020-Aug-13 17:45 324 1 gusting 4 31.7
2020-Aug-13 17:30 322 0 gusting 2 32.2
2020-Aug-13 17:15 312 1 gusting 3 32.2
2020-Aug-13 17:00 314 1 gusting 5 32.8
2020-Aug-13 16:45 259 32.8
2020-Aug-13 16:30 346 1 gusting 3 32.8
2020-Aug-13 16:15 026 0 gusting 4 32.2
2020-Aug-13 16:00 008 1 gusting 3 32.8
2020-Aug-13 15:45 017 2 gusting 5 32.2
2020-Aug-13 15:32 285 2 gusting 6 32.2
2020-Aug-13 15:17 293 2 gusting 6 32.2
2020-Aug-13 15:01 276 3 gusting 6 32.2
2020-Aug-13 14:46 338 1 gusting 5 32.2
2020-Aug-13 14:32 016 3 gusting 6 32.2
2020-Aug-13 14:16 329 0 gusting 5 32.2
2020-Aug-13 14:02 023 4 gusting 6 32.2
2020-Aug-13 13:46 308 1 gusting 5 32.2
2020-Aug-13 13:31 313 1 gusting 5 32.2
2020-Aug-13 13:16 340 1 gusting 5 32.2
2020-Aug-13 13:01 029 3 gusting 6 32.2
2020-Aug-13 12:45 305 2 gusting 8 32.2
2020-Aug-13 12:31 287 2 gusting 6 32.8
2020-Aug-13 12:15 278 0 gusting 2 32.2
2020-Aug-13 12:01 284 1 gusting 7 31.7
2020-Aug-13 11:47 270 3 gusting 8 31.7
2020-Aug-13 11:31 324 3 gusting 7 31.7
2020-Aug-13 11:15 267 0 gusting 2 31.1
2020-Aug-13 11:00 011 0 gusting 6 30.0
2020-Aug-13 10:45 269 2 gusting 6 30.0
2020-Aug-13 10:30 315 2 gusting 6 29.4
2020-Aug-13 10:15 266 5 gusting 9 28.9
2020-Aug-13 10:00 280 3 gusting 6 28.9
2020-Aug-13 09:45 297 4 gusting 9 28.3
2020-Aug-13 09:30 300 3 gusting 8 28.3
2020-Aug-13 09:15 284 2 gusting 9 27.8
2020-Aug-13 09:00 302 3 gusting 10 27.2
2020-Aug-13 08:45 288 4 gusting 10 27.2
2020-Aug-13 08:30 267 4 gusting 8 26.7
2020-Aug-13 08:15 256 1 gusting 13 27.2
2020-Aug-13 08:00 266 4 gusting 7 27.2
2020-Aug-13 07:45 308 3 gusting 6 26.1
2020-Aug-13 07:32 266 4 gusting 9 25.6
2020-Aug-13 07:16 259 5 gusting 9 25.6
2020-Aug-13 07:03 300 5 gusting 13 25.0
2020-Aug-13 06:47 273 5 gusting 9 25.0
2020-Aug-13 06:32 302 3 gusting 13 25.0
2020-Aug-13 06:17 286 4 gusting 10 25.0
2020-Aug-13 06:02 263 3 gusting 9 24.4
2020-Aug-13 05:46 248 4 gusting 8 24.4
2020-Aug-13 05:33 260 2 gusting 5 24.4
2020-Aug-13 05:16 262 2 gusting 5 24.4
2020-Aug-13 05:02 221 23.9